Regional Weather Roundup
Issued by NWS Cleveland, OH

Current Version | Previous Version | Text Only | Print | Product List | Glossary On
Versions: 1 2 3 4 5 6 7 8 9 10 11 12 13 14 15 16 17 18 19 20 21 22 23 24 25 26 27 28 29 30 31 32 33 34 35 36 37 38 39 40 41 42 43 44 45 46 47 48 49 50
000 ASUS41 KCLE 260512 RWRCLE OHIO REGIONAL WEATHER ROUNDUP NATIONAL WEATHER SERVICE WILMINGTON, OH 100 AM EDT THU MAY 26 2022 NOTE: "FAIR" INDICATES FEW OR NO CLOUDS BELOW 12,000 FEET WITH NO SIGNIFICANT WEATHER AND/OR OBSTRUCTIONS TO VISIBILITY. OHZ001>008-015>018-024>027-034-035-043-044-260600- NORTHWEST OHIO CITY SKY/WX TMP DP RH WIND PRES REMARKS DEFIANCE CLOUDY 69 66 90 SE7 29.92F FINDLAY HVY RAIN 69 66 90 SE15G29 29.95S FOG TOLEDO EXPRESS LGT RAIN 68 63 84 VRB7 29.94F TOLEDO EXEC CLOUDY 68 64 87 S7 29.96F LIMA CLOUDY 69 66 90 S14G20 29.95S $$ OHZ009>014-019>023-028>033-038-089-260600- NORTHEAST OHIO CITY SKY/WX TMP DP RH WIND PRES REMARKS CLE-HOPKINS CLOUDY 70 56 61 S16 29.98F CLE-LAKEFRONT FAIR 71 56 58 SE17G30 29.98F CUY CO. ARPT FAIR 67 56 67 SE13G22 30.02F LORAIN-ELYRIA FAIR 71 58 63 S16G23 29.99F ASHTABULA FAIR 65 55 70 S15G25 30.07R AKRON-CANTON MOCLDY 68 57 68 SE16 30.05F WOOSTER FAIR 68 59 73 S12 30.04S MANSFIELD FAIR 70 60 70 SE14G28 30.01S YOUNGSTOWN FAIR 62 54 74 SE13 30.09S $$ OHZ042-051>053-060>062-070>072-077>081-260600- SOUTHWEST OHIO CITY SKY/WX TMP DP RH WIND PRES REMARKS CINC-COVINGTON FAIR 73 64 73 S10 29.97R CINC-LUNKEN FAIR 72 64 76 S14 29.97R HAMILTON MOCLDY 77 61 57 VRB5G18 29.97R DAYTON CLOUDY 72 65 78 S14 29.97R WRIGHT-PAT AFB CLOUDY 69 66 93 SE6 29.93S DAYTON GENERAL CLOUDY 70 65 84 S8 29.96R WILMINGTON CLOUDY 71 67 87 S9 29.98S $$ OHZ036-037-039>041-045>050-054>059-063>069-073>076-082>088-260600- CENTRAL AND SOUTHEAST OHIO CITY SKY/WX TMP DP RH WIND PRES REMARKS COLUMBUS MOCLDY 71 63 75 SE12G20 30.00R OSU AIRPORT FAIR 73 61 65 SE12G21 29.99S BOLTON FIELD FAIR 69 61 75 S12G21 30.00S RICKENBACK AFB FAIR 70 61 72 SE12 30.00R NEWARK FAIR 70 58 65 S12 30.02S MARION MOCLDY 70 63 78 S14 29.99R LANCASTER FAIR 69 60 73 SE12 30.02S ZANESVILLE FAIR 67 58 72 S12 30.05S NEW PHILLY FAIR 68 57 68 SE8 30.06S $$

USA.gov is the U.S. government's official web portal to all federal, state and local government web resources and services.